Time,TemperatureF,DewpointF,PressureIn,WindDirection,WindDirectionDegrees,WindSpeedMPH,WindSpeedGustMPH,Humidity,HourlyPrecipIn,Conditions,Clouds,dailyrainin,SoftwareType,DateUTC
2013-10-23 00:01:00,58.0,-40.0,29.78,NNW,337,6.0,10.0,0,0.00,,,0.00,Rainwise IP-100,2013-10-23 04:01:00,
2013-10-23 00:02:00,58.0,-40.0,29.78,North,360,9.0,10.0,0,0.00,,,0.00,Rainwise IP-100,2013-10-23 04:02:00,
2013-10-23 00:03:00,58.0,-40.0,29.78,North,360,9.0,10.0,0,0.00,,,0.00,Rainwise IP-100,2013-10-23 04:03:00,
2013-10-23 00:08:00,57.0,-40.0,29.78,NW,315,3.0,12.0,0,0.00,,,0.00,Rainwise IP-100,2013-10-23 04:08:00,
2013-10-23 00:13:00,57.0,-40.0,29.78,NNW,337,12.0,12.0,0,0.00,,,0.00,Rainwise IP-100,2013-10-23 04:13:00,
2013-10-23 00:18:00,57.0,-40.0,29.78,NNW,337,6.0,12.0,0,0.00,,,0.00,Rainwise IP-100,2013-10-23 04:18:00,
2013-10-23 00:23:00,57.0,-40.0,29.78,NNW,337,2.0,9.0,0,0.00,,,0.00,Rainwise IP-100,2013-10-23 04:23:00,
2013-10-23 00:28:00,56.0,-40.0,29.79,NNW,337,7.0,10.0,0,0.00,,,0.00,Rainwise IP-100,2013-10-23 04:28:00,
2013-10-23 00:34:00,56.0,-40.0,29.79,North,360,6.0,13.0,0,0.00,,,0.00,Rainwise IP-100,2013-10-23 04:34:00,
2013-10-23 00:39:00,56.0,-40.0,29.80,NNE,22,12.0,12.0,0,0.00,,,0.00,Rainwise IP-100,2013-10-23 04:39:00,
2013-10-23 00:44:00,56.0,-40.0,29.80,North,360,9.0,12.0,0,0.00,,,0.00,Rainwise IP-100,2013-10-23 04:44:00,
2013-10-23 00:49:00,56.0,-40.0,29.81,NE,45,2.0,9.0,0,0.00,,,0.00,Rainwise IP-100,2013-10-23 04:49:00,
2013-10-23 00:54:00,55.0,-40.0,29.81,North,360,3.0,7.0,0,0.00,,,0.00,Rainwise IP-100,2013-10-23 04:54:00,
2013-10-23 00:59:00,56.0,-40.0,29.81,North,360,0.0,10.0,0,0.00,,,0.00,Rainwise IP-100,2013-10-23 04:59:00,
2013-10-23 01:04:00,55.0,-40.0,29.81,North,360,7.0,16.0,0,0.00,,,0.00,Rainwise IP-100,2013-10-23 05:04:00,
2013-10-23 01:09:00,55.0,-40.0,29.80,North,360,0.0,16.0,0,0.00,,,0.00,Rainwise IP-100,2013-10-23 05:09:00,
2013-10-23 01:14:00,55.0,-40.0,29.80,North,360,3.0,10.0,0,0.00,,,0.00,Rainwise IP-100,2013-10-23 05:14:00,
2013-10-23 01:19:00,55.0,-40.0,29.81,NNE,22,1.0,7.0,0,0.00,,,0.00,Rainwise IP-100,2013-10-23 05:19:00,
2013-10-23 01:24:00,55.0,-40.0,29.81,North,360,1.0,8.0,0,0.00,,,0.00,Rainwise IP-100,2013-10-23 05:24:00,
2013-10-23 01:29:00,55.0,-40.0,29.81,North,360,9.0,14.0,0,0.00,,,0.00,Rainwise IP-100,2013-10-23 05:29:00,
2013-10-23 01:34:00,55.0,-40.0,29.81,NNW,337,2.0,16.0,0,0.00,,,0.00,Rainwise IP-100,2013-10-23 05:34:00,
2013-10-23 01:39:00,55.0,-40.0,29.81,North,360,7.0,12.0,0,0.00,,,0.00,Rainwise IP-100,2013-10-23 05:39:00,
2013-10-23 01:44:00,55.0,-40.0,29.81,North,360,2.0,13.0,0,0.00,,,0.00,Rainwise IP-100,2013-10-23 05:44:00,
2013-10-23 01:50:00,55.0,-40.0,29.81,North,360,8.0,13.0,0,0.00,,,0.00,Rainwise IP-100,2013-10-23 05:50:00,
2013-10-23 01:55:00,55.0,-40.0,29.81,NNW,337,1.0,13.0,0,0.00,,,0.00,Rainwise IP-100,2013-10-23 05:55:00,
2013-10-23 02:00:00,55.0,-40.0,29.81,NNW,337,3.0,9.0,0,0.00,,,0.00,Rainwise IP-100,2013-10-23 06:00:00,
2013-10-23 02:05:00,54.0,-40.0,29.81,North,360,10.0,15.0,0,0.00,,,0.00,Rainwise IP-100,2013-10-23 06:05:00,
2013-10-23 02:10:00,54.0,-40.0,29.81,NNW,337,6.0,15.0,0,0.00,,,0.00,Rainwise IP-100,2013-10-23 06:10:00,
2013-10-23 02:15:00,54.0,-40.0,29.81,North,360,7.0,15.0,0,0.00,,,0.00,Rainwise IP-100,2013-10-23 06:15:00,
2013-10-23 02:20:00,54.0,-40.0,29.81,North,360,3.0,15.0,0,0.00,,,0.00,Rainwise IP-100,2013-10-23 06:20:00,
2013-10-23 02:25:00,54.0,-40.0,29.81,North,360,7.0,9.0,0,0.00,,,0.00,Rainwise IP-100,2013-10-23 06:25:00,
2013-10-23 02:30:00,54.0,-40.0,29.82,NNW,337,3.0,10.0,0,0.00,,,0.00,Rainwise IP-100,2013-10-23 06:30:00,
2013-10-23 02:35:00,54.0,-40.0,29.82,North,360,2.0,5.0,0,0.00,,,0.00,Rainwise IP-100,2013-10-23 06:35:00,
2013-10-23 02:40:00,54.0,-40.0,29.82,NNW,337,8.0,12.0,0,0.00,,,0.00,Rainwise IP-100,2013-10-23 06:40:00,
2013-10-23 02:45:00,54.0,-40.0,29.82,North,360,7.0,12.0,0,0.00,,,0.00,Rainwise IP-100,2013-10-23 06:45:00,
2013-10-23 02:50:00,54.0,-40.0,29.82,NNW,337,5.0,12.0,0,0.00,,,0.00,Rainwise IP-100,2013-10-23 06:50:00,
2013-10-23 02:55:00,54.0,-40.0,29.82,North,360,13.0,13.0,0,0.00,,,0.00,Rainwise IP-100,2013-10-23 06:55:00,
2013-10-23 03:00:00,54.0,-40.0,29.82,North,360,1.0,13.0,0,0.00,,,0.00,Rainwise IP-100,2013-10-23 07:00:00,
2013-10-23 03:06:00,54.0,-40.0,29.82,NNE,22,6.0,10.0,0,0.00,,,0.00,Rainwise IP-100,2013-10-23 07:06:00,
2013-10-23 03:11:00,54.0,-40.0,29.82,North,360,3.0,11.0,0,0.00,,,0.00,Rainwise IP-100,2013-10-23 07:11:00,
2013-10-23 03:16:00,53.0,-40.0,29.82,North,360,10.0,13.0,0,0.00,,,0.00,Rainwise IP-100,2013-10-23 07:16:00,
2013-10-23 03:21:00,53.0,-40.0,29.81,NNE,22,0.0,13.0,0,0.00,,,0.00,Rainwise IP-100,2013-10-23 07:21:00,
2013-10-23 03:26:00,53.0,-40.0,29.81,NNW,337,6.0,13.0,0,0.00,,,0.00,Rainwise IP-100,2013-10-23 07:26:00,
2013-10-23 03:31:00,53.0,-40.0,29.81,North,360,5.0,13.0,0,0.00,,,0.00,Rainwise IP-100,2013-10-23 07:31:00,
2013-10-23 03:36:00,53.0,-40.0,29.81,NNW,337,7.0,16.0,0,0.00,,,0.00,Rainwise IP-100,2013-10-23 07:36:00,
2013-10-23 03:41:00,53.0,-40.0,29.81,NE,45,3.0,10.0,0,0.00,,,0.00,Rainwise IP-100,2013-10-23 07:41:00,
2013-10-23 03:46:00,53.0,-40.0,29.81,North,360,3.0,12.0,0,0.00,,,0.00,Rainwise IP-100,2013-10-23 07:46:00,
2013-10-23 03:51:00,53.0,-40.0,29.81,NNW,337,6.0,6.0,0,0.00,,,0.00,Rainwise IP-100,2013-10-23 07:51:00,
2013-10-23 03:56:00,53.0,-40.0,29.81,NNE,22,4.0,11.0,0,0.00,,,0.00,Rainwise IP-100,2013-10-23 07:56:00,
2013-10-23 04:01:00,53.0,-40.0,29.81,NNE,22,6.0,11.0,0,0.00,,,0.00,Rainwise IP-100,2013-10-23 08:01:00,
2013-10-23 04:06:00,53.0,-40.0,29.81,North,360,1.0,11.0,0,0.00,,,0.00,Rainwise IP-100,2013-10-23 08:06:00,
2013-10-23 04:11:00,53.0,-40.0,29.81,North,360,8.0,10.0,0,0.00,,,0.00,Rainwise IP-100,2013-10-23 08:11:00,
2013-10-23 04:16:00,53.0,-40.0,29.81,NNW,337,2.0,8.0,0,0.00,,,0.00,Rainwise IP-100,2013-10-23 08:16:00,
2013-10-23 04:22:00,53.0,-40.0,29.81,NNW,337,4.0,13.0,0,0.00,,,0.00,Rainwise IP-100,2013-10-23 08:22:00,
2013-10-23 04:27:00,53.0,-40.0,29.81,NNE,22,7.0,8.0,0,0.00,,,0.00,Rainwise IP-100,2013-10-23 08:27:00,
2013-10-23 04:32:00,53.0,-40.0,29.81,North,360,7.0,8.0,0,0.00,,,0.00,Rainwise IP-100,2013-10-23 08:32:00,
2013-10-23 04:37:00,53.0,-40.0,29.81,North,360,9.0,11.0,0,0.00,,,0.00,Rainwise IP-100,2013-10-23 08:37:00,
2013-10-23 04:42:00,53.0,-40.0,29.81,NNE,22,7.0,11.0,0,0.00,,,0.00,Rainwise IP-100,2013-10-23 08:42:00,
2013-10-23 04:47:00,53.0,-40.0,29.81,NNE,22,10.0,10.0,0,0.00,,,0.00,Rainwise IP-100,2013-10-23 08:47:00,
2013-10-23 04:52:00,53.0,-40.0,29.81,North,360,6.0,10.0,0,0.00,,,0.00,Rainwise IP-100,2013-10-23 08:52:00,
2013-10-23 04:57:00,53.0,-40.0,29.81,NNE,22,3.0,6.0,0,0.00,,,0.00,Rainwise IP-100,2013-10-23 08:57:00,
2013-10-23 05:02:00,52.0,-40.0,29.81,North,360,0.0,13.0,0,0.00,,,0.00,Rainwise IP-100,2013-10-23 09:02:00,
2013-10-23 05:07:00,52.0,-40.0,29.81,North,360,2.0,8.0,0,0.00,,,0.00,Rainwise IP-100,2013-10-23 09:07:00,
2013-10-23 05:12:00,52.0,-40.0,29.81,ENE,67,0.0,9.0,0,0.00,,,0.00,Rainwise IP-100,2013-10-23 09:12:00,
2013-10-23 05:17:00,52.0,-40.0,29.81,North,360,6.0,9.0,0,0.00,,,0.00,Rainwise IP-100,2013-10-23 09:17:00,
2013-10-23 05:22:00,52.0,-40.0,29.80,North,360,5.0,9.0,0,0.00,,,0.00,Rainwise IP-100,2013-10-23 09:22:00,
2013-10-23 05:27:00,52.0,-40.0,29.80,NNE,22,10.0,10.0,0,0.00,,,0.00,Rainwise IP-100,2013-10-23 09:27:00,
2013-10-23 05:32:00,52.0,-40.0,29.79,NE,45,3.0,10.0,0,0.00,,,0.00,Rainwise IP-100,2013-10-23 09:32:00,
2013-10-23 05:38:00,52.0,-40.0,29.81,NE,45,5.0,7.0,0,0.00,,,0.00,Rainwise IP-100,2013-10-23 09:38:00,
2013-10-23 05:43:00,52.0,-40.0,29.81,ENE,67,6.0,7.0,0,0.00,,,0.00,Rainwise IP-100,2013-10-23 09:43:00,
2013-10-23 05:48:00,52.0,-40.0,29.81,NE,45,3.0,7.0,0,0.00,,,0.00,Rainwise IP-100,2013-10-23 09:48:00,
2013-10-23 05:53:00,52.0,-40.0,29.81,NNW,337,5.0,12.0,0,0.00,,,0.00,Rainwise IP-100,2013-10-23 09:53:00,
2013-10-23 05:58:00,52.0,-40.0,29.81,North,360,1.0,9.0,0,0.00,,,0.00,Rainwise IP-100,2013-10-23 09:58:00,
2013-10-23 06:03:00,52.0,-40.0,29.81,North,360,5.0,7.0,0,0.00,,,0.00,Rainwise IP-100,2013-10-23 10:03:00,
2013-10-23 06:08:00,52.0,-40.0,29.81,NE,45,3.0,7.0,0,0.00,,,0.00,Rainwise IP-100,2013-10-23 10:08:00,
2013-10-23 06:13:00,52.0,-40.0,29.81,NNE,22,3.0,7.0,0,0.00,,,0.00,Rainwise IP-100,2013-10-23 10:13:00,
2013-10-23 06:18:00,52.0,-40.0,29.81,North,360,3.0,7.0,0,0.00,,,0.00,Rainwise IP-100,2013-10-23 10:18:00,
2013-10-23 06:23:00,52.0,-40.0,29.81,North,360,6.0,8.0,0,0.00,,,0.00,Rainwise IP-100,2013-10-23 10:23:00,
2013-10-23 06:28:00,52.0,-40.0,29.80,NE,45,5.0,11.0,0,0.00,,,0.00,Rainwise IP-100,2013-10-23 10:28:00,
2013-10-23 06:33:00,52.0,-40.0,29.80,NNE,22,6.0,9.0,0,0.00,,,0.00,Rainwise IP-100,2013-10-23 10:33:00,
2013-10-23 06:38:00,52.0,-40.0,29.79,NNE,22,6.0,10.0,0,0.00,,,0.00,Rainwise IP-100,2013-10-23 10:38:00,
2013-10-23 06:43:00,52.0,-40.0,29.79,NNE,22,0.0,10.0,0,0.00,,,0.00,Rainwise IP-100,2013-10-23 10:43:00,
2013-10-23 06:48:00,52.0,-40.0,29.79,NE,45,11.0,12.0,0,0.00,,,0.00,Rainwise IP-100,2013-10-23 10:48:00,
2013-10-23 06:54:00,52.0,-40.0,29.78,ENE,67,10.0,12.0,0,0.00,,,0.00,Rainwise IP-100,2013-10-23 10:54:00,
2013-10-23 06:59:00,52.0,-40.0,29.78,NNE,22,7.0,12.0,0,0.00,,,0.00,Rainwise IP-100,2013-10-23 10:59:00,
2013-10-23 07:04:00,52.0,-40.0,29.78,NE,45,8.0,9.0,0,0.00,,,0.00,Rainwise IP-100,2013-10-23 11:04:00,
2013-10-23 07:09:00,52.0,-40.0,29.77,NNE,22,5.0,10.0,0,0.00,,,0.00,Rainwise IP-100,2013-10-23 11:09:00,
2013-10-23 07:14:00,52.0,-40.0,29.77,ENE,67,9.0,10.0,0,0.00,,,0.00,Rainwise IP-100,2013-10-23 11:14:00,
2013-10-23 07:19:00,52.0,-40.0,29.77,NE,45,6.0,10.0,0,0.00,,,0.00,Rainwise IP-100,2013-10-23 11:19:00,
2013-10-23 07:24:00,52.0,-40.0,29.77,NNE,22,8.0,10.0,0,0.00,,,0.00,Rainwise IP-100,2013-10-23 11:24:00,
2013-10-23 07:29:00,52.0,-40.0,29.77,NE,45,6.0,10.0,0,0.00,,,0.00,Rainwise IP-100,2013-10-23 11:29:00,
2013-10-23 07:34:00,52.0,-40.0,29.77,ESE,112,5.0,11.0,0,0.00,,,0.00,Rainwise IP-100,2013-10-23 11:34:00,
2013-10-23 07:39:00,52.0,-40.0,29.78,NE,45,6.0,10.0,0,0.00,,,0.00,Rainwise IP-100,2013-10-23 11:39:00,
2013-10-23 07:44:00,52.0,-40.0,29.78,NNW,337,5.0,9.0,0,0.00,,,0.00,Rainwise IP-100,2013-10-23 11:44:00,
2013-10-23 07:49:00,52.0,-40.0,29.78,East,90,0.0,10.0,0,0.00,,,0.00,Rainwise IP-100,2013-10-23 11:49:00,
2013-10-23 07:54:00,52.0,-40.0,29.78,NE,45,1.0,7.0,0,0.00,,,0.00,Rainwise IP-100,2013-10-23 11:54:00,
2013-10-23 07:59:00,52.0,-40.0,29.78,ENE,67,0.0,7.0,0,0.00,,,0.00,Rainwise IP-100,2013-10-23 11:59:00,
2013-10-23 08:04:00,52.0,-40.0,29.78,NE,45,6.0,7.0,0,0.00,,,0.00,Rainwise IP-100,2013-10-23 12:04:00,
2013-10-23 08:10:00,52.0,-40.0,29.78,ENE,67,3.0,12.0,0,0.00,,,0.00,Rainwise IP-100,2013-10-23 12:10:00,
2013-10-23 08:15:00,52.0,-40.0,29.78,NE,45,6.0,10.0,0,0.00,,,0.00,Rainwise IP-100,2013-10-23 12:15:00,
2013-10-23 08:20:00,52.0,-40.0,29.77,ENE,67,0.0,9.0,0,0.00,,,0.00,Rainwise IP-100,2013-10-23 12:20:00,
2013-10-23 08:25:00,52.0,-40.0,29.77,ENE,67,0.0,2.0,0,0.00,,,0.00,Rainwise IP-100,2013-10-23 12:25:00,
2013-10-23 08:30:00,53.0,-40.0,29.79,NE,45,1.0,6.0,0,0.00,,,0.00,Rainwise IP-100,2013-10-23 12:30:00,
2013-10-23 08:35:00,53.0,-40.0,29.79,NE,45,6.0,9.0,0,0.00,,,0.00,Rainwise IP-100,2013-10-23 12:35:00,
2013-10-23 08:40:00,53.0,-40.0,29.78,East,90,2.0,9.0,0,0.00,,,0.00,Rainwise IP-100,2013-10-23 12:40:00,
2013-10-23 08:45:00,53.0,-40.0,29.78,NE,45,6.0,6.0,0,0.00,,,0.00,Rainwise IP-100,2013-10-23 12:45:00,
2013-10-23 08:50:00,53.0,-40.0,29.77,SE,135,3.0,9.0,0,0.00,,,0.00,Rainwise IP-100,2013-10-23 12:50:00,
2013-10-23 08:55:00,53.0,-40.0,29.77,East,90,7.0,7.0,0,0.00,,,0.00,Rainwise IP-100,2013-10-23 12:55:00,
2013-10-23 09:00:00,53.0,-40.0,29.77,ESE,112,7.0,7.0,0,0.00,,,0.00,Rainwise IP-100,2013-10-23 13:00:00,
2013-10-23 09:05:00,53.0,-40.0,29.78,North,360,4.0,7.0,0,0.00,,,0.00,Rainwise IP-100,2013-10-23 13:05:00,
2013-10-23 09:10:00,53.0,-40.0,29.78,NE,45,0.0,5.0,0,0.00,,,0.00,Rainwise IP-100,2013-10-23 13:10:00,
2013-10-23 09:15:00,54.0,-40.0,29.78,East,90,4.0,5.0,0,0.00,,,0.00,Rainwise IP-100,2013-10-23 13:15:00,
2013-10-23 09:20:00,54.0,-40.0,29.78,ENE,67,2.0,7.0,0,0.00,,,0.00,Rainwise IP-100,2013-10-23 13:20:00,
2013-10-23 09:26:00,54.0,-40.0,29.78,ENE,67,2.0,7.0,0,0.00,,,0.00,Rainwise IP-100,2013-10-23 13:26:00,
2013-10-23 09:31:00,54.0,-40.0,29.78,East,90,4.0,7.0,0,0.00,,,0.00,Rainwise IP-100,2013-10-23 13:31:00,
2013-10-23 09:36:00,54.0,-40.0,29.78,East,90,2.0,7.0,0,0.00,,,0.00,Rainwise IP-100,2013-10-23 13:36:00,
2013-10-23 09:41:00,55.0,-40.0,29.76,East,90,1.0,10.0,0,0.00,,,0.00,Rainwise IP-100,2013-10-23 13:41:00,
2013-10-23 09:46:00,56.0,-40.0,29.76,SE,135,0.0,7.0,0,0.00,,,0.00,Rainwise IP-100,2013-10-23 13:46:00,
2013-10-23 09:51:00,56.0,-40.0,29.75,ENE,67,10.0,12.0,0,0.00,,,0.00,Rainwise IP-100,2013-10-23 13:51:00,
2013-10-23 09:56:00,55.0,-40.0,29.75,East,90,6.0,12.0,0,0.00,,,0.00,Rainwise IP-100,2013-10-23 13:56:00,
2013-10-23 10:01:00,55.0,-40.0,29.76,ENE,67,8.0,10.0,0,0.00,,,0.00,Rainwise IP-100,2013-10-23 14:01:00,
2013-10-23 10:06:00,55.0,-40.0,29.75,East,90,2.0,10.0,0,0.00,,,0.00,Rainwise IP-100,2013-10-23 14:06:00,
2013-10-23 10:11:00,55.0,-40.0,29.75,NE,45,3.0,7.0,0,0.00,,,0.00,Rainwise IP-100,2013-10-23 14:11:00,
2013-10-23 10:16:00,55.0,-40.0,29.75,NE,45,7.0,7.0,0,0.00,,,0.00,Rainwise IP-100,2013-10-23 14:16:00,
2013-10-23 10:21:00,55.0,-40.0,29.75,ENE,67,2.0,7.0,0,0.00,,,0.00,Rainwise IP-100,2013-10-23 14:21:00,
2013-10-23 10:26:00,55.0,-40.0,29.75,SE,135,1.0,9.0,0,0.00,,,0.00,Rainwise IP-100,2013-10-23 14:26:00,
2013-10-23 10:31:00,55.0,-40.0,29.75,ESE,112,2.0,6.0,0,0.00,,,0.00,Rainwise IP-100,2013-10-23 14:31:00,
2013-10-23 10:36:00,56.0,-40.0,29.75,East,90,8.0,9.0,0,0.00,,,0.00,Rainwise IP-100,2013-10-23 14:36:00,
2013-10-23 10:42:00,55.0,-40.0,29.75,ENE,67,5.0,9.0,0,0.00,,,0.00,Rainwise IP-100,2013-10-23 14:42:00,
2013-10-23 10:47:00,55.0,-40.0,29.75,ENE,67,5.0,7.0,0,0.00,,,0.00,Rainwise IP-100,2013-10-23 14:47:00,
2013-10-23 10:52:00,54.0,-40.0,29.75,East,90,4.0,8.0,0,0.00,,,0.00,Rainwise IP-100,2013-10-23 14:52:00,
2013-10-23 10:57:00,54.0,-40.0,29.74,NNE,22,0.0,8.0,0,0.00,,,0.00,Rainwise IP-100,2013-10-23 14:57:00,
2013-10-23 11:02:00,54.0,-40.0,29.74,NNE,22,0.0,3.0,0,0.00,,,0.00,Rainwise IP-100,2013-10-23 15:02:00,
2013-10-23 11:07:00,54.0,-40.0,29.74,NNE,22,0.0,3.0,0,0.00,,,0.00,Rainwise IP-100,2013-10-23 15:07:00,
2013-10-23 11:12:00,54.0,-40.0,29.75,East,90,0.0,6.0,0,0.00,,,0.00,Rainwise IP-100,2013-10-23 15:12:00,
2013-10-23 11:17:00,54.0,-40.0,29.75,NNE,22,0.0,3.0,0,0.00,,,0.00,Rainwise IP-100,2013-10-23 15:17:00,
2013-10-23 11:22:00,54.0,-40.0,29.75,East,90,0.0,3.0,0,0.00,,,0.00,Rainwise IP-100,2013-10-23 15:22:00,
2013-10-23 11:27:00,53.0,-40.0,29.74,ENE,67,0.0,5.0,0,0.00,,,0.00,Rainwise IP-100,2013-10-23 15:27:00,
2013-10-23 11:32:00,53.0,-40.0,29.74,NE,45,1.0,1.0,0,0.00,,,0.00,Rainwise IP-100,2013-10-23 15:32:00,
2013-10-23 11:37:00,53.0,-40.0,29.73,ENE,67,0.0,2.0,0,0.00,,,0.00,Rainwise IP-100,2013-10-23 15:37:00,
2013-10-23 11:42:00,52.0,-40.0,29.73,NE,45,0.0,6.0,0,0.00,,,0.00,Rainwise IP-100,2013-10-23 15:42:00,
2013-10-23 11:47:00,52.0,-40.0,29.73,ENE,67,2.0,6.0,0,0.00,,,0.00,Rainwise IP-100,2013-10-23 15:47:00,
2013-10-23 11:52:00,52.0,-40.0,29.73,East,90,0.0,6.0,0,0.00,,,0.00,Rainwise IP-100,2013-10-23 15:52:00,
2013-10-23 11:58:00,52.0,-40.0,29.72,ENE,67,6.0,6.0,0,0.00,,,0.00,Rainwise IP-100,2013-10-23 15:58:00,
2013-10-23 12:03:00,52.0,-40.0,29.72,East,90,0.0,6.0,0,0.00,,,0.00,Rainwise IP-100,2013-10-23 16:03:00,
2013-10-23 12:08:00,52.0,-40.0,29.71,NE,45,3.0,3.0,0,0.00,,,0.00,Rainwise IP-100,2013-10-23 16:08:00,
2013-10-23 12:13:00,52.0,-40.0,29.71,East,90,0.0,7.0,0,0.00,,,0.00,Rainwise IP-100,2013-10-23 16:13:00,
2013-10-23 12:18:00,52.0,-40.0,29.71,East,90,2.0,7.0,0,0.00,,,0.00,Rainwise IP-100,2013-10-23 16:18:00,
2013-10-23 12:23:00,52.0,-40.0,29.71,East,90,0.0,6.0,0,0.00,,,0.00,Rainwise IP-100,2013-10-23 16:23:00,
2013-10-23 12:28:00,52.0,-40.0,29.71,NE,45,0.0,6.0,0,0.00,,,0.00,Rainwise IP-100,2013-10-23 16:28:00,
2013-10-23 12:33:00,52.0,-40.0,29.71,NE,45,1.0,4.0,0,0.00,,,0.00,Rainwise IP-100,2013-10-23 16:33:00,
2013-10-23 12:38:00,52.0,-40.0,29.69,ESE,112,2.0,7.0,0,0.00,,,0.00,Rainwise IP-100,2013-10-23 16:38:00,
2013-10-23 12:43:00,52.0,-40.0,29.69,NE,45,1.0,7.0,0,0.00,,,0.00,Rainwise IP-100,2013-10-23 16:43:00,
2013-10-23 12:48:00,52.0,-40.0,29.69,NE,45,5.0,7.0,0,0.00,,,0.00,Rainwise IP-100,2013-10-23 16:48:00,
2013-10-23 12:53:00,52.0,-40.0,29.69,ENE,67,4.0,9.0,0,0.00,,,0.00,Rainwise IP-100,2013-10-23 16:53:00,
2013-10-23 12:58:00,52.0,-40.0,29.67,ENE,67,1.0,7.0,0,0.00,,,0.00,Rainwise IP-100,2013-10-23 16:58:00,
2013-10-23 13:03:00,52.0,-40.0,29.67,NE,45,3.0,8.0,0,0.00,,,0.00,Rainwise IP-100,2013-10-23 17:03:00,
2013-10-23 13:08:00,52.0,-40.0,29.67,NNE,22,0.0,6.0,0,0.00,,,0.00,Rainwise IP-100,2013-10-23 17:08:00,
2013-10-23 13:14:00,52.0,-40.0,29.67,NE,45,5.0,7.0,0,0.00,,,0.00,Rainwise IP-100,2013-10-23 17:14:00,
2013-10-23 13:19:00,52.0,-40.0,29.67,East,90,2.0,6.0,0,0.00,,,0.00,Rainwise IP-100,2013-10-23 17:19:00,
2013-10-23 13:24:00,52.0,-40.0,29.67,North,360,1.0,6.0,0,0.00,,,0.00,Rainwise IP-100,2013-10-23 17:24:00,
2013-10-23 13:29:00,52.0,-40.0,29.67,NE,45,0.0,5.0,0,0.00,,,0.00,Rainwise IP-100,2013-10-23 17:29:00,
2013-10-23 13:34:00,52.0,-40.0,29.67,North,360,2.0,3.0,0,0.00,,,0.00,Rainwise IP-100,2013-10-23 17:34:00,
2013-10-23 13:39:00,52.0,-40.0,29.66,NNE,22,1.0,3.0,0,0.00,,,0.00,Rainwise IP-100,2013-10-23 17:39:00,
2013-10-23 13:44:00,52.0,-40.0,29.66,NNE,22,3.0,6.0,0,0.00,,,0.00,Rainwise IP-100,2013-10-23 17:44:00,
2013-10-23 13:49:00,52.0,-40.0,29.66,NNE,22,1.0,6.0,0,0.00,,,0.00,Rainwise IP-100,2013-10-23 17:49:00,
2013-10-23 13:54:00,52.0,-40.0,29.65,NNW,337,2.0,6.0,0,0.00,,,0.00,Rainwise IP-100,2013-10-23 17:54:00,
2013-10-23 13:59:00,52.0,-40.0,29.65,NNE,22,4.0,9.0,0,0.00,,,0.00,Rainwise IP-100,2013-10-23 17:59:00,
2013-10-23 14:04:00,52.0,-40.0,29.65,North,360,7.0,7.0,0,0.00,,,0.00,Rainwise IP-100,2013-10-23 18:04:00,
2013-10-23 14:09:00,52.0,-40.0,29.65,NNE,22,7.0,7.0,0,0.00,,,0.00,Rainwise IP-100,2013-10-23 18:09:00,
2013-10-23 14:14:00,52.0,-40.0,29.65,North,360,4.0,7.0,0,0.00,,,0.00,Rainwise IP-100,2013-10-23 18:14:00,
2013-10-23 14:19:00,52.0,-40.0,29.65,NNE,22,1.0,9.0,0,0.00,,,0.00,Rainwise IP-100,2013-10-23 18:19:00,
2013-10-23 14:24:00,52.0,-40.0,29.65,ENE,67,0.0,9.0,0,0.00,,,0.00,Rainwise IP-100,2013-10-23 18:24:00,
2013-10-23 14:30:00,52.0,-40.0,29.64,North,360,7.0,8.0,0,0.00,,,0.00,Rainwise IP-100,2013-10-23 18:30:00,
2013-10-23 14:35:00,52.0,-40.0,29.64,NE,45,2.0,9.0,0,0.00,,,0.00,Rainwise IP-100,2013-10-23 18:35:00,
2013-10-23 14:40:00,52.0,-40.0,29.64,North,360,7.0,9.0,0,0.00,,,0.00,Rainwise IP-100,2013-10-23 18:40:00,
2013-10-23 14:45:00,52.0,-40.0,29.65,NNW,337,3.0,7.0,0,0.00,,,0.00,Rainwise IP-100,2013-10-23 18:45:00,
2013-10-23 14:50:00,52.0,-40.0,29.65,NE,45,4.0,10.0,0,0.00,,,0.00,Rainwise IP-100,2013-10-23 18:50:00,
2013-10-23 14:55:00,52.0,-40.0,29.65,NE,45,0.0,7.0,0,0.00,,,0.00,Rainwise IP-100,2013-10-23 18:55:00,
2013-10-23 15:00:00,52.0,-40.0,29.63,ENE,67,3.0,10.0,0,0.00,,,0.00,Rainwise IP-100,2013-10-23 19:00:00,
2013-10-23 15:05:00,52.0,-40.0,29.63,NNE,22,0.0,11.0,0,0.00,,,0.00,Rainwise IP-100,2013-10-23 19:05:00,
2013-10-23 15:10:00,52.0,-40.0,29.61,NNE,22,2.0,13.0,0,0.00,,,0.00,Rainwise IP-100,2013-10-23 19:10:00,
2013-10-23 15:15:00,52.0,-40.0,29.61,NNE,22,3.0,10.0,0,0.00,,,0.00,Rainwise IP-100,2013-10-23 19:15:00,
2013-10-23 15:20:00,52.0,-40.0,29.62,NNE,22,2.0,7.0,0,0.00,,,0.00,Rainwise IP-100,2013-10-23 19:20:00,
2013-10-23 15:26:00,52.0,-40.0,29.62,NE,45,2.0,7.0,0,0.00,,,0.00,Rainwise IP-100,2013-10-23 19:26:00,
2013-10-23 15:31:00,52.0,-40.0,29.62,ENE,67,7.0,7.0,0,0.00,,,0.00,Rainwise IP-100,2013-10-23 19:31:00,
2013-10-23 15:36:00,52.0,-40.0,29.62,ENE,67,3.0,7.0,0,0.00,,,0.00,Rainwise IP-100,2013-10-23 19:36:00,
2013-10-23 15:41:00,52.0,-40.0,29.62,NE,45,3.0,7.0,0,0.00,,,0.00,Rainwise IP-100,2013-10-23 19:41:00,
2013-10-23 15:46:00,51.0,-40.0,29.62,NE,45,4.0,10.0,0,0.00,,,0.00,Rainwise IP-100,2013-10-23 19:46:00,
2013-10-23 15:51:00,51.0,-40.0,29.62,NE,45,1.0,10.0,0,0.00,,,0.00,Rainwise IP-100,2013-10-23 19:51:00,
2013-10-23 15:56:00,51.0,-40.0,29.62,NNE,22,2.0,9.0,0,0.00,,,0.00,Rainwise IP-100,2013-10-23 19:56:00,
2013-10-23 16:01:00,51.0,-40.0,29.61,NNE,22,5.0,9.0,0,0.00,,,0.00,Rainwise IP-100,2013-10-23 20:01:00,
2013-10-23 16:06:00,51.0,-40.0,29.61,East,90,3.0,11.0,0,0.00,,,0.00,Rainwise IP-100,2013-10-23 20:06:00,
2013-10-23 16:11:00,51.0,-40.0,29.61,NE,45,2.0,8.0,0,0.00,,,0.00,Rainwise IP-100,2013-10-23 20:11:00,
2013-10-23 16:16:00,51.0,-40.0,29.61,NE,45,6.0,10.0,0,0.00,,,0.00,Rainwise IP-100,2013-10-23 20:16:00,
2013-10-23 16:21:00,51.0,-40.0,29.61,ENE,67,7.0,10.0,0,0.00,,,0.00,Rainwise IP-100,2013-10-23 20:21:00,
2013-10-23 16:26:00,52.0,-40.0,29.61,ENE,67,9.0,13.0,0,0.00,,,0.00,Rainwise IP-100,2013-10-23 20:26:00,
2013-10-23 16:31:00,51.0,-40.0,29.61,North,360,2.0,13.0,0,0.00,,,0.00,Rainwise IP-100,2013-10-23 20:31:00,
2013-10-23 16:36:00,51.0,-40.0,29.62,North,360,6.0,11.0,0,0.00,,,0.00,Rainwise IP-100,2013-10-23 20:36:00,
2013-10-23 16:42:00,51.0,-40.0,29.62,NNE,22,5.0,9.0,0,0.00,,,0.00,Rainwise IP-100,2013-10-23 20:42:00,
2013-10-23 16:47:00,51.0,-40.0,29.62,NNE,22,4.0,9.0,0,0.00,,,0.00,Rainwise IP-100,2013-10-23 20:47:00,
2013-10-23 16:52:00,51.0,-40.0,29.63,NNE,22,3.0,6.0,0,0.00,,,0.00,Rainwise IP-100,2013-10-23 20:52:00,
2013-10-23 16:57:00,51.0,-40.0,29.63,NNE,22,5.0,7.0,0,0.00,,,0.00,Rainwise IP-100,2013-10-23 20:57:00,
2013-10-23 17:02:00,50.0,-40.0,29.64,NNW,337,6.0,7.0,0,0.00,,,0.00,Rainwise IP-100,2013-10-23 21:02:00,
2013-10-23 17:07:00,50.0,-40.0,29.64,NNE,22,6.0,8.0,0,0.00,,,0.00,Rainwise IP-100,2013-10-23 21:07:00,
2013-10-23 17:12:00,50.0,-40.0,29.64,North,360,11.0,11.0,0,0.00,,,0.00,Rainwise IP-100,2013-10-23 21:12:00,
2013-10-23 17:17:00,50.0,-40.0,29.64,NNE,22,6.0,11.0,0,0.00,,,0.00,Rainwise IP-100,2013-10-23 21:17:00,
2013-10-23 17:22:00,50.0,-40.0,29.64,NNE,22,1.0,9.0,0,0.00,,,0.00,Rainwise IP-100,2013-10-23 21:22:00,
2013-10-23 17:27:00,50.0,-40.0,29.64,North,360,3.0,10.0,0,0.00,,,0.00,Rainwise IP-100,2013-10-23 21:27:00,
2013-10-23 17:32:00,49.0,-40.0,29.63,North,360,4.0,13.0,0,0.00,,,0.00,Rainwise IP-100,2013-10-23 21:32:00,
2013-10-23 17:37:00,50.0,-40.0,29.62,NNE,22,5.0,13.0,0,0.00,,,0.00,Rainwise IP-100,2013-10-23 21:37:00,
2013-10-23 17:42:00,50.0,-40.0,29.62,North,360,6.0,9.0,0,0.00,,,0.00,Rainwise IP-100,2013-10-23 21:42:00,
2013-10-23 17:47:00,50.0,-40.0,29.61,NNW,337,9.0,12.0,0,0.00,,,0.00,Rainwise IP-100,2013-10-23 21:47:00,
2013-10-23 17:52:00,50.0,-40.0,29.61,NNE,22,6.0,10.0,0,0.00,,,0.00,Rainwise IP-100,2013-10-23 21:52:00,
2013-10-23 17:58:00,49.0,-40.0,29.61,NNE,22,7.0,16.0,0,0.00,,,0.00,Rainwise IP-100,2013-10-23 21:58:00,
2013-10-23 18:03:00,49.0,-40.0,29.61,NNE,22,8.0,14.0,0,0.00,,,0.00,Rainwise IP-100,2013-10-23 22:03:00,
2013-10-23 18:08:00,49.0,-40.0,29.61,NNE,22,1.0,13.0,0,0.00,,,0.00,Rainwise IP-100,2013-10-23 22:08:00,
2013-10-23 18:13:00,49.0,-40.0,29.61,North,360,9.0,12.0,0,0.00,,,0.00,Rainwise IP-100,2013-10-23 22:13:00,
2013-10-23 18:18:00,49.0,-40.0,29.63,NNE,22,4.0,12.0,0,0.00,,,0.00,Rainwise IP-100,2013-10-23 22:18:00,
2013-10-23 18:23:00,49.0,-40.0,29.65,NNW,337,4.0,9.0,0,0.00,,,0.00,Rainwise IP-100,2013-10-23 22:23:00,
2013-10-23 18:28:00,49.0,-40.0,29.65,North,360,5.0,11.0,0,0.00,,,0.00,Rainwise IP-100,2013-10-23 22:28:00,
2013-10-23 18:33:00,49.0,-40.0,29.65,North,360,6.0,11.0,0,0.00,,,0.00,Rainwise IP-100,2013-10-23 22:33:00,
2013-10-23 18:38:00,49.0,-40.0,29.66,North,360,3.0,11.0,0,0.00,,,0.00,Rainwise IP-100,2013-10-23 22:38:00,
2013-10-23 18:43:00,48.0,-40.0,29.66,North,360,5.0,8.0,0,0.00,,,0.00,Rainwise IP-100,2013-10-23 22:43:00,
2013-10-23 18:48:00,48.0,-40.0,29.67,NNW,337,6.0,12.0,0,0.00,,,0.00,Rainwise IP-100,2013-10-23 22:48:00,
2013-10-23 18:53:00,48.0,-40.0,29.67,NNW,337,6.0,12.0,0,0.00,,,0.00,Rainwise IP-100,2013-10-23 22:53:00,
2013-10-23 18:58:00,48.0,-40.0,29.67,NNW,337,5.0,12.0,0,0.00,,,0.00,Rainwise IP-100,2013-10-23 22:58:00,
2013-10-23 19:03:00,48.0,-40.0,29.67,NNE,22,6.0,7.0,0,0.00,,,0.00,Rainwise IP-100,2013-10-23 23:03:00,
2013-10-23 19:08:00,48.0,-40.0,29.67,NNW,337,9.0,13.0,0,0.00,,,0.00,Rainwise IP-100,2013-10-23 23:08:00,
2013-10-23 19:14:00,48.0,-40.0,29.67,North,360,9.0,13.0,0,0.00,,,0.00,Rainwise IP-100,2013-10-23 23:14:00,
2013-10-23 19:19:00,48.0,-40.0,29.67,WNW,292,5.0,15.0,0,0.00,,,0.00,Rainwise IP-100,2013-10-23 23:19:00,
2013-10-23 19:24:00,48.0,-40.0,29.67,NNW,337,10.0,15.0,0,0.00,,,0.00,Rainwise IP-100,2013-10-23 23:24:00,
2013-10-23 19:29:00,48.0,-40.0,29.67,NNW,337,6.0,13.0,0,0.00,,,0.00,Rainwise IP-100,2013-10-23 23:29:00,
2013-10-23 19:34:00,47.0,-40.0,29.67,North,360,6.0,11.0,0,0.00,,,0.00,Rainwise IP-100,2013-10-23 23:34:00,
2013-10-23 19:39:00,47.0,-40.0,29.67,NNW,337,5.0,13.0,0,0.00,,,0.00,Rainwise IP-100,2013-10-23 23:39:00,
2013-10-23 19:44:00,47.0,-40.0,29.67,NNW,337,1.0,8.0,0,0.00,,,0.00,Rainwise IP-100,2013-10-23 23:44:00,
2013-10-23 19:49:00,48.0,-40.0,29.67,North,360,5.0,12.0,0,0.00,,,0.00,Rainwise IP-100,2013-10-23 23:49:00,
2013-10-23 19:54:00,47.0,-40.0,29.67,North,360,9.0,12.0,0,0.00,,,0.00,Rainwise IP-100,2013-10-23 23:54:00,
2013-10-23 19:59:00,47.0,-40.0,29.67,North,360,8.0,10.0,0,0.00,,,0.00,Rainwise IP-100,2013-10-23 23:59:00,
2013-10-23 20:04:00,47.0,-40.0,29.67,NNW,337,2.0,11.0,0,0.00,,,0.00,Rainwise IP-100,2013-10-24 00:04:00,
2013-10-23 20:09:00,47.0,-40.0,29.67,NNW,337,10.0,13.0,0,0.00,,,0.00,Rainwise IP-100,2013-10-24 00:09:00,
2013-10-23 20:14:00,47.0,-40.0,29.67,North,360,9.0,15.0,0,0.00,,,0.00,Rainwise IP-100,2013-10-24 00:14:00,
2013-10-23 20:19:00,47.0,-40.0,29.67,North,360,3.0,11.0,0,0.00,,,0.00,Rainwise IP-100,2013-10-24 00:19:00,
2013-10-23 20:24:00,47.0,-40.0,29.67,NNW,337,12.0,12.0,0,0.00,,,0.00,Rainwise IP-100,2013-10-24 00:24:00,
2013-10-23 20:30:00,47.0,-40.0,29.67,NNW,337,10.0,15.0,0,0.00,,,0.00,Rainwise IP-100,2013-10-24 00:30:00,
2013-10-23 20:35:00,47.0,-40.0,29.67,North,360,10.0,15.0,0,0.00,,,0.00,Rainwise IP-100,2013-10-24 00:35:00,
2013-10-23 20:40:00,47.0,-40.0,29.66,North,360,7.0,12.0,0,0.00,,,0.00,Rainwise IP-100,2013-10-24 00:40:00,
2013-10-23 20:45:00,47.0,-40.0,29.66,North,360,7.0,13.0,0,0.00,,,0.00,Rainwise IP-100,2013-10-24 00:45:00,
2013-10-23 20:50:00,47.0,-40.0,29.66,WNW,292,3.0,16.0,0,0.00,,,0.00,Rainwise IP-100,2013-10-24 00:50:00,
2013-10-23 20:55:00,47.0,-40.0,29.66,North,360,4.0,11.0,0,0.00,,,0.00,Rainwise IP-100,2013-10-24 00:55:00,
2013-10-23 21:00:00,47.0,-40.0,29.65,North,360,6.0,12.0,0,0.00,,,0.00,Rainwise IP-100,2013-10-24 01:00:00,
2013-10-23 21:05:00,47.0,-40.0,29.65,NNW,337,6.0,12.0,0,0.00,,,0.00,Rainwise IP-100,2013-10-24 01:05:00,
2013-10-23 21:10:00,47.0,-40.0,29.66,North,360,6.0,13.0,0,0.00,,,0.00,Rainwise IP-100,2013-10-24 01:10:00,
2013-10-23 21:15:00,46.0,-40.0,29.66,NNW,337,6.0,12.0,0,0.00,,,0.00,Rainwise IP-100,2013-10-24 01:15:00,
2013-10-23 21:20:00,46.0,-40.0,29.66,NNW,337,2.0,12.0,0,0.00,,,0.00,Rainwise IP-100,2013-10-24 01:20:00,
2013-10-23 21:25:00,46.0,-40.0,29.67,NNW,337,7.0,12.0,0,0.00,,,0.00,Rainwise IP-100,2013-10-24 01:25:00,
2013-10-23 21:30:00,47.0,-40.0,29.67,NNW,337,5.0,12.0,0,0.00,,,0.00,Rainwise IP-100,2013-10-24 01:30:00,
2013-10-23 21:35:00,46.0,-40.0,29.67,NNW,337,2.0,11.0,0,0.00,,,0.00,Rainwise IP-100,2013-10-24 01:35:00,
2013-10-23 21:40:00,47.0,-40.0,29.67,NNW,337,7.0,11.0,0,0.00,,,0.00,Rainwise IP-100,2013-10-24 01:40:00,
2013-10-23 21:46:00,47.0,-40.0,29.67,NNW,337,1.0,8.0,0,0.00,,,0.00,Rainwise IP-100,2013-10-24 01:46:00,
2013-10-23 21:51:00,46.0,-40.0,29.67,NNW,337,4.0,9.0,0,0.00,,,0.00,Rainwise IP-100,2013-10-24 01:51:00,
2013-10-23 21:56:00,46.0,-40.0,29.67,North,360,2.0,11.0,0,0.00,,,0.00,Rainwise IP-100,2013-10-24 01:56:00,
2013-10-23 22:01:00,46.0,-40.0,29.67,NNW,337,9.0,9.0,0,0.00,,,0.00,Rainwise IP-100,2013-10-24 02:01:00,
2013-10-23 22:06:00,46.0,-40.0,29.67,North,360,0.0,9.0,0,0.00,,,0.00,Rainwise IP-100,2013-10-24 02:06:00,
2013-10-23 22:11:00,46.0,-40.0,29.67,North,360,1.0,6.0,0,0.00,,,0.00,Rainwise IP-100,2013-10-24 02:11:00,
2013-10-23 22:16:00,46.0,-40.0,29.67,NNW,337,8.0,9.0,0,0.00,,,0.00,Rainwise IP-100,2013-10-24 02:16:00,
2013-10-23 22:21:00,46.0,-40.0,29.67,North,360,1.0,10.0,0,0.00,,,0.00,Rainwise IP-100,2013-10-24 02:21:00,
2013-10-23 22:26:00,46.0,-40.0,29.67,North,360,8.0,10.0,0,0.00,,,0.00,Rainwise IP-100,2013-10-24 02:26:00,
2013-10-23 22:31:00,46.0,-40.0,29.67,North,360,6.0,9.0,0,0.00,,,0.00,Rainwise IP-100,2013-10-24 02:31:00,
2013-10-23 22:36:00,46.0,-40.0,29.67,North,360,4.0,9.0,0,0.00,,,0.00,Rainwise IP-100,2013-10-24 02:36:00,
2013-10-23 22:41:00,46.0,-40.0,29.68,North,360,8.0,9.0,0,0.00,,,0.00,Rainwise IP-100,2013-10-24 02:41:00,
2013-10-23 22:46:00,46.0,-40.0,29.68,North,360,6.0,9.0,0,0.00,,,0.00,Rainwise IP-100,2013-10-24 02:46:00,
2013-10-23 22:51:00,47.0,-40.0,29.67,North,360,4.0,9.0,0,0.00,,,0.00,Rainwise IP-100,2013-10-24 02:51:00,
2013-10-23 22:56:00,47.0,-40.0,29.68,NNW,337,5.0,9.0,0,0.00,,,0.00,Rainwise IP-100,2013-10-24 02:56:00,
2013-10-23 23:02:00,47.0,-40.0,29.68,NNW,337,7.0,10.0,0,0.00,,,0.00,Rainwise IP-100,2013-10-24 03:02:00,
2013-10-23 23:07:00,47.0,-40.0,29.68,NNW,337,6.0,11.0,0,0.00,,,0.00,Rainwise IP-100,2013-10-24 03:07:00,
2013-10-23 23:12:00,47.0,-40.0,29.69,North,360,9.0,13.0,0,0.00,,,0.00,Rainwise IP-100,2013-10-24 03:12:00,
2013-10-23 23:17:00,47.0,-40.0,29.69,NNW,337,7.0,13.0,0,0.00,,,0.00,Rainwise IP-100,2013-10-24 03:17:00,
2013-10-23 23:22:00,47.0,-40.0,29.69,NNW,337,9.0,9.0,0,0.00,,,0.00,Rainwise IP-100,2013-10-24 03:22:00,
2013-10-23 23:27:00,47.0,-40.0,29.68,NNW,337,3.0,9.0,0,0.00,,,0.00,Rainwise IP-100,2013-10-24 03:27:00,
2013-10-23 23:32:00,47.0,-40.0,29.69,NW,315,7.0,8.0,0,0.00,,,0.00,Rainwise IP-100,2013-10-24 03:32:00,
2013-10-23 23:37:00,47.0,-40.0,29.69,NNW,337,4.0,8.0,0,0.00,,,0.00,Rainwise IP-100,2013-10-24 03:37:00,
2013-10-23 23:42:00,47.0,-40.0,29.68,NW,315,1.0,7.0,0,0.00,,,0.00,Rainwise IP-100,2013-10-24 03:42:00,
2013-10-23 23:47:00,48.0,-40.0,29.68,NNW,337,5.0,10.0,0,0.00,,,0.00,Rainwise IP-100,2013-10-24 03:47:00,
2013-10-23 23:52:00,48.0,-40.0,29.68,NNW,337,9.0,9.0,0,0.00,,,0.00,Rainwise IP-100,2013-10-24 03:52:00,
2013-10-23 23:58:00,48.0,-40.0,29.68,NNW,337,2.0,10.0,0,0.00,,,0.00,Rainwise IP-100,2013-10-24 03:58:00,